sat.trackr.live / text

‹ back to catalog

STARLINK-5951

NORAD 56918 · 2023-083AU

PAYLOAD ACTIVE UNKNOWN

§ Identity

Operator
Country
US
Launch date
2023-06-12
Launch site
AFETR
Launch vehicle
Mass (kg)
RCS (m²)

Purposes: comms

External: N2YO · Heavens-Above · Gunter

§ Orbital elements

Epoch: 2026-05-24T22:48:26.473824Z

Period
94.27 min
Inclination
43.0028°
Eccentricity
0.0001135
Mean motion
15.27574917 rev/d
Perigee alt
482.3 km
Apogee alt
483.8 km
Semi-major
6,861.2 km
B*
3.2429e-6
RAAN
359.7869°
Arg perigee
257.2921°
Mean anomaly
102.7803°
Rev number
16,346

§ Raw data

STARLINK-59511 56918U 23083AU  26144.95030641 -.00000173  00000+0  32429-5 0  99962 56918  43.0028 359.7869 0001135 257.2921 102.7803 15.27574917163462

JSON: /api/v1/satellites/56918 · /tle

For live sub-satellite position, see the globe view (requires WebGL).

§ Visibility from observer

Set your observer location to see the next 7 days of passes ≥ 10°. The values pass through the URL so the page stays shareable.

No JS? Fill the form by hand. The geolocation button needs JavaScript.